カタログに戻る

Slippers2Sat

運用中科学SSO
NORAD 66996·PAYLOAD·🇨🇳 China

打ち上げ Dec 10, 2025 から Jiuquan Satellite Launch Center

Loading…

次のパス (今後24時間)

TLE

最新Source: Space-Track

元期: Sep 14, 2026, 11:22 UTC

1 66996U 25292D   26257.47381954  .00002254  00000-0  15645-3 0  9996
2 66996  97.6253 332.2512 0015531  61.7177 298.5616 15.06498173 41884

AllMySatでSlippers2Satをリアルタイム追跡

Download on the App Store